Theta_e
313 313 313 313 312 312 313 313 313 313 314 314 313 313 315 314 313 312 316 334 341 343 338 339 340 342 342 340 339 339 340 341 342 342 341 342 343 342 342 341 341 343 342 341
314 314 315 314 314 314 313 313 313 313 314 312 315 315 315 316 316 315 325 333 335 334 334 333 339 341 342 341 339 337 337 340 341 342 342 345 346 346 344 344 346 345 345 344
316 316 316 317 317 317 316 315 316 316 317 316 316 314 315 315 318 322 325 333 334 335 336 346 346 346 346 344 343 342 341 339 341 345 343 343 347 346 345 346 349 350 351 349
316 315 317 316 317 317 318 317 316 318 317 317 316 318 314 317 323 326 324 327 338 341 348 346 341 342 343 344 348 350 351 348 347 350 347 347 346 345 346 349 349 350 351 350
317 316 316 317 319 320 320 319 318 318 317 316 316 315 314 327 328 328 327 337 336 340 339 336 334 334 335 338 343 348 351 352 352 352 352 353 350 351 351 351 352 351 351 352
316 315 317 319 318 320 319 318 317 314 313 318 316 315 314 330 328 328 327 334 335 335 333 331 330 330 332 334 336 339 341 339 341 343 346 349 348 346 346 347 348 348 350 351
316 318 316 316 318 317 315 317 320 320 319 320 320 319 329 328 325 325 326 326 329 332 332 331 329 328 327 329 329 331 333 334 336 336 335 336 336 338 338 340 342 344 346 348
318 318 316 317 319 318 317 318 319 325 325 323 320 328 333 326 323 323 323 322 322 321 324 328 329 328 327 328 329 328 328 327 327 328 328 327 327 331 334 336 336 336 338 340
316 317 315 316 317 318 318 320 319 321 323 325 322 331 330 329 325 323 323 322 322 320 318 318 318 317 317 317 317 320 320 321 322 320 320 324 324 323 323 324 327 333 335 335
315 315 315 316 316 317 321 319 322 319 322 324 326 325 331 333 327 323 322 322 321 321 320 319 316 313 313 314 314 315 316 316 316 317 317 317 316 317 318 320 322 321 322 326
313 313 313 313 315 318 319 322 322 319 324 329 326 325 330 331 328 324 322 321 320 320 320 319 318 315 312 313 313 313 313 313 313 314 314 315 315 315 316 316 319 322 320 319
311 311 312 313 314 320 320 323 320 318 318 323 323 323 324 327 326 325 323 322 322 322 320 320 318 319 313 312 312 312 313 313 313 312 312 312 312 313 313 313 314 316 320 320
310 309 312 312 309 311 317 322 322 318 317 322 327 322 324 324 327 325 321 320 319 320 321 319 318 318 315 313 312 312 312 312 312 311 311 311 311 311 312 312 312 313 317 320
310 308 311 314 313 312 316 316 320 318 319 318 322 322 320 324 323 325 323 320 318 321 320 320 317 317 312 311 311 311 311 311 311 311 312 312 311 312 312 312 313 313 314 319
308 311 311 311 313 316 316 316 316 321 319 321 319 319 318 320 322 324 322 322 321 322 321 319 318 313 310 310 310 310 310 310 309 309 309 310 310 310 311 311 312 313 313 315
308 313 316 317 316 315 315 312 313 314 315 317 318 318 316 316 320 323 321 321 321 319 319 314 309 310 309 309 309 309 309 309 309 309 308 307 308 309 309 310 310 312 313 313
309 309 309 312 314 313 312 313 314 316 316 316 311 312 314 319 322 322 320 313 312 311 310 310 309 309 309 309 309 309 309 309 308 307 307 308 308 308 309 309 309 309 310 311
307 307 307 310 310 313 309 311 315 316 316 314 313 313 313 312 312 313 313 313 312 310 311 309 309 308 308 308 308 308 308 307 307 307 307 308 308 308 309 309 309 310 309 309
307 306 309 308 311 310 313 315 312 311 316 314 314 313 312 311 311 311 310 309 308 308 309 309 309 308 308 308 308 308 308 307 307 308 308 308 308 309 309 309 310 310 310 310
307 307 312 308 311 312 310 313 314 310 313 314 312 313 313 312 311 311 310 308 308 308 309 308 308 308 308 308 308 308 307 307 307 308 309 308 309 309 309 310 310 311 311 311
310 308 310 304 307 310 309 314 315 314 311 313 312 311 311 311 309 309 308 308 308 308 308 308 308 307 308 308 307 307 306 307 307 307 307 308 309 309 310 310 310 310 311 311
312 310 308 307 311 316 313 314 315 309 310 310 310 310 310 308 307 308 308 308 307 307 307 307 307 308 308 307 306 306 306 307 307 308 308 308 308 310 310 309 310 310 311 310
311 310 311 309 308 306 311 313 313 311 311 310 310 308 307 307 308 307 306 305 305 306 306 307 306 306 306 306 306 306 307 307 308 308 308 309 310 309 309 309 310 309 310 310
308 312 310 311 309 312 311 311 311 311 311 310 309 308 307 307 306 305 303 302 302 304 305 305 305 305 305 306 307 307 307 306 308 308 309 309 308 309 308 308 307 307 308 309
305 306 308 309 309 308 310 311 311 311 310 310 309 307 305 304 304 303 302 301 302 303 304 304 304 304 304 306 306 307 307 308 308 308 308 307 307 307 307 307 307 308 309 308
304 304 303 305 306 306 308 310 311 311 310 308 305 304 303 303 302 302 301 301 302 302 303 303 303 304 305 305 304 306 307 308 308 307 306 306 306 305 305 305 306 306 306 306
Wind_Speed
4 5 3 7 5 5 3 3 5 12 15 3 10 6 13 11 6 7 7 8 8 9 4 7 10 15 18 16 19 25 24 21 26 26 25 23 26 24 29 32 26 25 30 29
6 3 8 4 5 5 5 5 9 8 11 4 9 10 7 5 5 4 9 10 9 5 7 5 10 12 14 17 18 20 20 23 19 23 30 24 26 28 27 22 24 27 24 27
4 8 4 2 6 3 3 4 5 7 11 3 4 7 6 5 10 13 8 3 6 6 8 6 8 11 9 14 16 20 25 20 21 23 27 27 19 17 16 15 18 17 16 19
4 4 3 7 4 1 2 5 7 6 3 6 2 9 5 8 5 14 12 8 8 6 8 10 8 11 13 10 11 11 10 19 19 15 18 20 18 24 20 17 18 16 17 20
5 5 7 6 5 4 3 9 6 5 5 3 2 1 5 7 7 13 11 9 10 11 12 10 11 16 17 19 21 20 23 20 14 14 14 16 6 8 5 2 3 8 15 18
4 3 5 4 3 3 8 7 5 5 2 4 6 3 4 4 6 7 9 11 10 12 11 8 13 16 22 24 25 28 30 28 25 24 19 14 10 7 6 5 3 6 6 8
6 3 4 5 5 8 12 8 5 5 4 5 6 3 2 6 5 6 6 11 11 11 9 7 6 11 20 26 26 27 32 30 28 27 27 24 22 16 14 11 9 8 7 7
3 6 5 6 4 4 5 4 4 5 2 5 5 4 3 7 5 7 8 13 15 15 8 8 8 13 19 26 27 30 32 32 30 29 28 26 25 22 19 17 15 12 11 10
3 4 5 5 3 1 4 2 1 1 2 3 3 2 3 6 4 6 12 15 14 13 14 12 12 18 18 26 30 30 30 29 29 27 26 26 24 23 22 19 17 15 14 14
4 3 2 5 5 4 3 2 1 3 1 4 4 4 4 10 7 5 11 12 8 12 12 10 15 14 15 23 29 26 29 29 27 26 25 25 25 25 23 22 19 17 18 19
3 3 5 3 4 4 4 3 5 3 2 2 2 4 6 6 9 8 10 10 8 12 7 5 9 19 15 23 18 22 24 24 23 21 20 20 21 22 22 23 22 19 19 21
1 4 1 2 5 3 3 2 3 4 3 2 2 6 3 4 4 9 5 9 10 15 7 6 16 20 18 13 13 19 19 21 19 17 17 20 21 22 22 23 24 22 20 18
4 2 3 6 5 4 2 3 3 3 2 6 2 4 5 4 7 6 7 7 5 9 4 3 5 4 8 8 2 12 15 16 15 16 17 19 21 22 22 22 23 24 23 15
4 3 7 6 6 3 5 4 6 6 4 4 6 6 7 5 6 10 14 11 9 5 7 5 6 13 8 6 8 13 17 15 14 16 17 15 15 16 17 17 17 20 23 17
4 4 4 5 6 6 8 8 7 9 11 8 12 10 11 11 15 15 13 12 12 9 9 8 8 7 5 6 8 11 11 11 12 13 13 13 13 14 15 16 16 15 17 21
2 2 2 4 7 7 8 12 12 13 12 10 14 15 16 4 11 10 12 11 11 12 13 8 7 9 6 4 5 8 7 7 9 12 15 17 16 16 14 13 15 16 16 16
4 5 2 4 3 6 7 3 5 1 2 3 4 5 2 3 9 12 9 7 7 7 7 7 6 8 5 1 3 5 3 3 8 11 12 14 14 15 15 15 15 16 17 17
6 5 3 3 3 1 7 7 5 7 2 5 4 3 4 6 5 6 6 7 6 8 6 5 2 3 4 2 1 2 4 9 10 9 12 11 14 14 16 16 16 17 16 16
7 5 2 2 2 6 7 3 2 2 2 4 4 6 8 9 9 7 3 4 5 4 5 9 9 6 6 6 6 6 10 13 14 15 15 15 16 17 17 18 18 18 18 18
6 4 4 3 3 4 6 5 3 3 3 2 5 5 5 1 4 3 0 2 4 6 8 7 9 5 9 11 9 11 15 15 15 14 15 16 17 18 19 19 21 20 20 19
3 2 6 2 4 6 5 8 7 4 7 5 4 4 1 2 4 4 5 5 7 5 5 9 7 10 12 9 10 14 16 19 21 18 19 19 18 21 19 19 20 22 20 18
4 4 3 2 1 7 2 4 3 4 3 5 4 4 4 5 4 3 2 1 3 3 5 5 7 7 8 9 9 14 15 19 20 20 20 22 21 18 19 19 20 20 19 20
2 5 4 7 5 5 3 5 3 3 3 3 5 5 6 5 3 2 2 5 6 6 5 7 6 9 12 12 8 10 17 19 17 19 23 21 18 17 16 15 15 18 18 18
3 1 2 2 3 4 6 5 5 6 5 4 3 3 6 4 1 2 3 2 5 6 6 8 9 10 12 14 16 13 19 20 19 19 18 16 16 15 13 14 15 17 17 17
4 3 1 4 7 6 6 7 6 5 6 8 4 2 3 5 4 4 2 4 5 7 11 8 7 10 13 15 16 15 16 15 16 12 11 11 12 15 17 16 16 17 16 18
5 7 4 5 7 5 7 5 3 4 2 4 8 5 5 6 5 4 3 5 7 9 9 11 12 13 14 15 19 15 12 12 10 10 12 12 14 18 20 21 24 22 21 21
Wind_Direction
10 58 281 256 201 208 247 238 257 278 282 260 274 277 288 309 298 239 174 166 189 176 165 178 176 190 185 193 203 209 203 206 204 209 206 216 222 235 231 240 242 257 250 244
13 307 260 241 237 229 231 262 280 284 275 152 287 288 285 302 304 266 169 161 177 152 134 138 150 185 202 213 217 212 222 231 226 225 213 214 223 231 234 240 253 256 256 250
154 248 351 295 307 297 268 217 265 253 305 255 267 303 329 344 32 20 2 16 137 155 127 108 95 115 163 199 218 231 236 233 222 218 216 213 219 222 247 248 251 249 243 241
218 287 13 332 314 3 300 295 265 266 347 291 121 286 307 350 353 12 358 13 12 32 106 102 70 64 78 86 123 151 185 214 214 194 203 200 210 224 246 259 267 269 262 252
264 305 348 38 331 325 270 315 285 261 246 302 66 59 253 353 333 354 333 56 46 59 62 47 72 73 74 78 76 86 99 102 119 171 188 191 164 107 101 125 283 285 267 268
269 1 48 345 324 93 307 341 8 25 92 268 337 195 270 345 331 331 343 52 60 80 62 49 44 77 85 82 77 80 82 78 78 81 81 108 103 84 74 47 350 357 324 289
342 3 329 31 24 354 6 34 348 327 353 247 334 16 292 352 353 347 341 50 49 58 62 46 10 53 68 74 77 77 81 76 75 74 76 76 75 67 52 49 29 359 345 330
56 327 29 353 63 280 284 134 165 276 274 274 341 320 342 89 70 57 52 69 56 57 37 42 28 47 60 68 72 72 70 68 65 62 61 60 61 57 50 42 30 18 4 341
61 280 337 53 336 333 308 49 206 144 313 347 237 139 201 160 117 86 72 67 60 51 40 33 52 68 70 72 72 74 69 67 62 55 51 49 46 40 34 31 25 15 6 359
195 304 26 301 14 19 56 116 15 14 314 288 304 286 295 181 161 136 76 72 57 57 36 17 30 20 55 77 83 84 75 69 62 53 46 40 35 31 27 19 10 6 360 356
126 123 292 21 0 311 350 21 54 97 161 230 293 272 6 290 171 191 123 101 81 51 20 349 25 24 65 64 74 72 71 63 57 49 40 35 26 23 19 13 4 352 352 352
54 137 107 252 299 11 94 134 127 122 249 256 290 261 160 100 190 254 192 160 164 120 280 319 38 10 356 79 41 49 56 49 40 29 19 15 12 11 12 11 7 360 340 338
180 31 27 351 346 356 9 202 167 103 67 223 226 264 191 156 134 232 226 216 192 141 142 34 39 310 278 309 69 62 60 48 30 25 21 7 2 0 359 358 1 0 354 327
92 150 161 199 215 179 286 238 215 170 178 209 223 281 284 193 187 179 209 207 202 173 174 194 208 233 228 239 85 59 40 27 20 8 8 4 358 355 357 360 355 355 358 340
96 202 190 241 239 241 251 272 249 200 231 219 253 230 253 223 198 206 196 197 203 208 201 202 213 238 218 99 66 53 34 12 1 354 352 349 350 347 353 1 6 355 350 359
31 258 193 260 256 260 272 275 265 265 243 241 248 258 250 267 187 169 191 192 189 196 199 183 147 164 168 109 55 39 9 358 359 356 342 330 329 330 336 344 352 358 358 347
173 158 105 265 272 312 293 232 259 169 34 291 248 268 134 101 154 169 162 143 142 126 118 127 161 166 167 152 33 45 40 341 346 343 350 347 343 340 340 340 341 340 337 341
151 133 138 246 355 264 245 311 144 108 355 332 7 62 68 93 88 87 103 111 119 123 137 151 186 240 247 281 347 347 339 342 339 324 321 325 326 323 332 335 337 337 326 320
163 132 153 152 191 294 313 125 307 305 320 2 94 100 91 85 74 32 53 115 136 140 152 172 210 249 270 290 310 322 324 323 321 316 309 314 316 313 317 320 324 325 325 318
100 88 142 133 166 231 242 278 13 108 304 258 146 158 157 64 95 226 352 92 127 159 185 220 224 252 292 292 291 299 306 308 308 314 315 313 309 310 309 312 314 314 316 308
93 63 199 142 214 285 261 307 309 193 240 175 154 131 105 128 217 168 154 162 178 201 219 201 221 251 259 256 285 291 297 301 304 311 310 308 308 305 300 307 308 311 313 315
183 164 201 113 167 267 355 333 227 230 260 147 151 169 132 123 125 146 196 264 306 303 317 307 286 254 231 253 269 274 283 300 306 305 310 308 305 300 300 303 305 307 309 315
273 187 192 179 216 223 238 190 256 208 247 161 135 141 140 144 150 129 1 354 350 350 5 1 331 306 290 285 277 291 300 306 305 305 305 304 305 303 304 303 304 308 305 312
298 145 244 70 279 235 237 256 224 202 203 168 160 149 131 151 91 83 98 352 332 327 336 335 330 326 324 324 317 310 305 307 303 302 302 299 296 297 300 301 299 304 303 306
212 360 251 270 288 301 257 236 220 187 147 121 132 79 99 113 66 69 29 8 357 342 330 323 334 326 319 324 323 328 325 317 300 294 300 304 308 308 306 305 306 304 297 302
191 217 176 230 248 215 252 243 185 165 175 125 128 112 93 104 94 68 42 341 336 340 343 338 332 333 335 328 327 337 339 328 319 307 312 315 317 314 311 308 307 301 300 301